Regional Weather Roundup
Issued by NWS Newport/Morehead, NC

Current Version | Previous Version | Text Only | Print | Product List | Glossary On
Versions: 1 2 3 4 5 6 7 8 9 10 11 12 13 14 15 16 17 18 19 20 21 22 23 24 25 26 27 28 29 30 31 32 33 34 35 36 37 38 39 40 41 42 43 44 45 46 47 48 49 50
000
ASUS42 KMHX 230410
RWRMHX
WEATHER ROUNDUP FOR EASTERN NORTH CAROLINA
NATIONAL WEATHER SERVICE NEWPORT/MOREHEAD CITY NC
1200 AM EDT SAT AUG 23 2014

NOTE: "FAIR" INDICATES FEW OR NO CLOUDS BELOW 12,000 FEET
WITH NO SIGNIFICANT WEATHER AND/OR OBSTRUCTIONS TO VISIBILITY

NCZ015>017-031-032-045>047-102-103-230500-
NORTH COAST

CITY           SKY/WX    TMP DP  RH WIND       PRES   REMARKS
EDENTON        MOCLDY    75  72  89 CALM      29.96S
ELIZABETH CITY PTCLDY    76  72  87 N7        29.96S
KITTY HAWK     PTCLDY    77  73  90 NE3       29.94S
MANTEO         MOCLDY    75  73  94 NE5       29.95S

$$

NCZ045>047-081-094-103-104-230500-
CENTRAL COAST

CITY           SKY/WX    TMP DP  RH WIND       PRES   REMARKS
FRISCO         MOCLDY    76  73  91 NE5       29.95R
SWANQUARTER      N/A     77 N/A N/A NE3       29.91S

$$

NCZ095-097-098-100-101-230500-
SOUTHERN COAST

CITY           SKY/WX    TMP DP  RH WIND       PRES   REMARKS
BEAUFORT       MOCLDY    82  73  74 N3        29.95S
CEDAR ISLAND     N/A     82 N/A N/A NE3       30.00S
JACKSONVILLE   PTCLDY    76  73  91 W5        29.96S
NEWPORT        NOT AVBL
PINEY ISLAND   MOCLDY    82  75  79 NE5       29.94F
WILMINGTON     LGT RAIN  75  74  96 CALM      29.95F


$$

NCZ011>013-027>030-043-044-078>080-089-090>093-098-230500-
COASTAL PLAIN

CITY           SKY/WX    TMP DP  RH WIND       PRES   REMARKS
AHOSKIE        MOCLDY    72  70  93 CALM      29.97F
CLINTON        NOT AVBL
ELIZABETHTOWN  CLEAR     75  72  88 CALM      29.97S
GOLDSBORO      MOCLDY    75  74  98 CALM      29.95S
GREENVILLE     MOCLDY    77  72  83 NE5       29.98F
HAVELOCK       MOCLDY    82  72  71 NE6       29.96S
KENANSVILLE    MOCLDY    72  70  95 CALM      29.98S
KINSTON        PTCLDY    75  73  94 CALM      29.97S
NEW BERN       PTCLDY    81  72  74 CALM      29.97S
RICHLANDS      PTCLDY    73  70  88 CALM      29.97S
ROANOKE RAPIDS NOT AVBL
ROCKY MOUNT    CLOUDY    76  73  91 CALM      29.97S
WASHINGTON     MOCLDY    75  72  89 CALM      29.97S
WHITEVILLE     PTCLDY    77  72  85 CALM      29.96F

$$

AMZ130-135-150-152-154-156-158-170-250-252-270-ANZ085-086-088-633-658-670-230500-
MARINE OBSERVATIONS

STATION/POSITION TIME  TEMP    WIND        PRES    WAVE   SWELL
                       AIR SEA DIR/SP/G            HT/PER HT/PER
                 (UTC) (F)     (DEG/KT/KT) (MB)    (FT/S) (FT/S)
CHESAPEAKE LIGHT 0300   76      60/ 12/ 13 1015.2
BUOY 44014       0400   78 78   50/ 10/ 12 1013.7    2/ 8   2/ 8
DUCK             0400   78 81   20/  8/ 11 1013.5
2E DUCK          0400                        N/A     2/ 7
OREGON INLET     0400   77 83  360/  5/  6 1014.1
BUOY 44095       0400      80                N/A     2/ 4
20E OREGON INLET NOT AVBL
HATTERAS CG      0400   80 83   50/  4/  6 1014.5
DIAMOND BUOY     0400   78     340/  6/  8 1013.9    2/ 8   2/ 8
CAPE LOOKOUT     0300   82      40/  2/  3 1014.1
BEAUFORT LAB     0400   82 83   CALM  /  2 1014.1
30 SE NEW RIVER  0400   82 83  280/ 14/ 16 1013.5    2/ 4
5 SE WRIGHTSVILL 0400   78 83  240/ 12/ 14   N/A
BUOY 41002       0329   82 82  240/ 14/ 16 1015.6    2/ 5   2/11
BUOY 41004       0400   85 85  200/ 10/ 12 1014.1    2/ 9   2/ 9

$$


USA.gov is the U.S. government's official web portal to all federal, state and local government web resources and services.